2017-033B

Last updated on June 18, 2017, 12:15 a.m. UTC

1 42757U 17033B   17168.09886509  .06262002  12506-4  34767-3 0  9993
2 42757  51.6494  37.7492 0006812  61.5653  75.3695 16.42037569   436

Satellite is not in orbit.